Temp
19 18 18 18 19 19 19 19 19 19 19 18 19 18 18 18 18 19 19 19 19 19 19 20 20 20 20 20 20 20 20 20 19 20 20 20 21 20 20 20 20 20 21
18 18 18 18 18 18 19 19 19 19 19 19 19 19 19 18 18 18 18 19 18 19 19 19 19 19 20 20 20 20 19 19 19 18 19 19 20 20 20 20 21 20 21
19 18 18 18 18 18 19 19 19 19 19 19 19 19 19 18 18 18 18 18 18 18 18 19 18 19 19 19 19 19 19 19 19 19 18 19 19 19 20 20 20 21 20
18 18 18 18 18 18 19 19 19 19 19 19 19 19 19 19 19 18 18 18 18 18 18 18 18 18 18 18 18 18 18 18 18 18 18 18 18 19 19 19 19 19 21
17 18 17 17 18 18 19 19 19 19 19 19 19 19 19 19 19 18 18 18 18 18 18 18 18 18 18 18 18 18 19 19 18 18 19 19 19 19 19 19 19 19 20
15 16 17 17 18 18 19 19 19 19 19 19 19 19 18 19 19 19 19 19 18 18 18 18 18 18 18 18 18 18 19 19 19 18 19 18 18 19 18 18 18 18 19
14 14 15 16 16 17 17 18 18 18 18 19 19 19 19 18 19 19 19 18 18 18 18 19 18 18 19 19 19 19 19 19 19 19 19 19 19 19 19 19 18 19 18
14 14 14 15 15 15 15 15 16 17 18 18 18 18 18 18 18 19 19 18 18 18 18 18 18 19 18 19 19 19 19 19 19 19 19 19 19 19 19 18 19 19 19
14 13 14 14 14 14 15 15 16 16 16 17 17 16 16 17 17 17 18 18 18 18 18 18 18 18 19 19 19 19 19 19 18 19 18 18 19 19 18 18 17 18 18
12 12 12 13 14 14 14 14 15 15 15 16 16 15 15 16 16 16 17 17 17 17 17 17 17 17 18 18 18 18 18 18 18 18 18 18 18 18 18 18 17 17 17
13 13 13 13 14 14 14 14 14 14 15 15 14 14 13 14 15 15 16 16 15 16 16 16 15 15 15 16 16 17 17 18 18 17 17 18 18 18 16 16 17 17 16
13 13 13 13 14 14 13 13 14 14 14 14 13 13 13 13 13 13 14 15 15 15 15 15 15 15 16 16 16 16 16 16 17 17 17 16 15 15 15 16 17 17 17
12 12 12 12 13 13 13 13 13 13 13 13 13 12 12 12 12 12 12 13 13 13 14 14 14 14 15 15 15 15 16 16 16 16 15 17 16 14 16 14 15 15 16
11 11 11 11 11 11 11 12 12 12 12 12 12 12 12 12 13 13 13 13 13 13 13 13 13 14 14 13 14 14 15 15 15 14 15 15 15 15 14 14 13 14 15
12 12 11 11 11 11 11 11 11 11 11 11 11 11 11 12 12 13 13 13 13 13 13 13 13 13 13 13 13 13 13 13 13 14 14 14 14 15 15 15 14 15 13
11 11 11 10 10 10 10 10 10 10 10 10 10 10 11 11 11 11 12 12 12 12 12 12 12 11 12 12 12 11 11 11 13 13 13 13 13 13 13 14 14 13 13
9 10 10 9 9 9 9 9 9 8 9 9 9 9 9 10 10 11 11 11 11 11 11 10 10 10 10 9 9 9 9 9 11 11 11 12 12 12 12 12 12 12 12
9 9 9 9 9 9 9 9 8 8 8 8 8 9 9 9 9 10 10 10 10 10 10 10 10 7 6 8 9 9 9 9 8 9 9 10 10 9 10 9 9 9 9
8 8 8 8 8 8 8 8 8 8 8 8 8 8 9 9 9 9 9 9 9 8 6 6 5 5 5 5 5 6 6 6 7 7 7 7 8 9 9 9 9 9 9
7 7 7 7 7 7 7 7 7 7 7 7 6 7 7 8 8 8 8 8 7 7 6 6 6 6 4 4 3 4 4 4 4 5 5 6 6 7 7 8 8 7 8
7 7 7 6 6 6 6 6 6 6 5 5 5 5 6 6 5 5 5 5 4 4 4 4 4 4 4 3 2 2 2 3 3 3 3 3 4 5 5 5 5 6 6
7 6 6 6 6 5 5 5 5 4 4 4 4 3 4 2 3 3 2 1 1 2 2 2 1 -0 -1 0 1 0 0 0 1 2 1 1 1 2 2 3 4 4 5
5 5 5 5 5 4 4 4 4 4 3 3 3 2 1 1 1 1 1 0 1 1 0 -0 -1 -2 -2 -2 -2 -2 -1 -1 -1 -1 -1 -1 -1 -0 0 0 1 3 3
5 4 4 4 4 4 3 2 3 3 3 1 1 1 0 1 0 0 0 0 0 -0 -1 -1 -2 -3 -3 -3 -3 -3 -3 -2 -2 -2 -2 -2 -2 -1 -1 -1 -0 0 1
4 4 4 3 4 4 3 3 3 3 3 3 3 2 2 2 2 2 1 1 1 -0 -1 -1 -2 -2 -3 -4 -4 -3 -3 -2 -2 -2 -2 -1 -1 -0 -0 -0 -0 -0 -0
4 3 3 2 3 3 3 2 2 2 2 2 3 3 2 2 2 1 1 0 -0 -1 -1 -2 -2 -2 -2 -3 -3 -4 -3 -3 -3 -2 -2 -2 -2 -1 -1 -0 0 0 0
Height
1588 1592 1594 1596 1598 1600 1602 1603 1605 1606 1608 1610 1613 1614 1615 1617 1618 1619 1621 1622 1623 1624 1625 1626 1627 1627 1627 1627 1627 1627 1626 1625 1625 1623 1619 1617 1615 1613 1611 1609 1607 1605 1603
1585 1588 1590 1594 1597 1597 1600 1601 1603 1606 1607 1609 1611 1612 1613 1614 1616 1617 1619 1620 1620 1621 1622 1623 1625 1625 1625 1625 1625 1625 1624 1623 1622 1620 1618 1616 1614 1612 1610 1608 1606 1604 1602
1579 1584 1588 1591 1593 1594 1597 1599 1601 1604 1606 1607 1609 1610 1611 1612 1614 1615 1616 1617 1619 1619 1620 1621 1622 1622 1623 1622 1622 1622 1621 1621 1620 1619 1617 1614 1613 1611 1609 1607 1605 1603 1602
1576 1580 1583 1587 1590 1592 1594 1596 1599 1601 1603 1605 1607 1609 1610 1610 1611 1613 1614 1616 1617 1617 1618 1618 1619 1619 1620 1620 1620 1619 1619 1618 1618 1617 1616 1614 1612 1609 1607 1605 1604 1603 1600
1572 1575 1580 1583 1586 1589 1591 1593 1595 1598 1599 1601 1604 1606 1607 1608 1609 1610 1612 1613 1614 1615 1616 1617 1616 1617 1618 1618 1618 1617 1616 1615 1616 1616 1614 1612 1611 1609 1607 1604 1602 1600 1599
1569 1574 1577 1580 1583 1585 1586 1588 1591 1593 1596 1598 1600 1602 1604 1605 1606 1607 1609 1610 1612 1612 1613 1613 1614 1613 1614 1614 1614 1614 1614 1613 1612 1612 1612 1610 1607 1606 1604 1601 1599 1597 1596
1566 1570 1574 1575 1582 1582 1583 1584 1586 1589 1593 1594 1596 1598 1600 1601 1603 1604 1605 1606 1608 1608 1609 1610 1610 1611 1609 1610 1610 1610 1610 1609 1608 1608 1606 1605 1603 1602 1600 1597 1595 1593 1590
1565 1568 1572 1575 1580 1579 1581 1582 1584 1586 1588 1590 1592 1594 1596 1597 1597 1598 1600 1601 1603 1604 1605 1605 1605 1605 1605 1605 1605 1605 1604 1604 1604 1603 1601 1600 1598 1597 1595 1593 1590 1588 1585
1566 1570 1572 1575 1577 1577 1578 1582 1583 1584 1586 1587 1588 1590 1593 1593 1593 1593 1595 1596 1596 1598 1599 1599 1600 1599 1598 1599 1600 1599 1599 1599 1598 1597 1595 1594 1593 1592 1590 1588 1586 1585 1583
1568 1570 1572 1574 1575 1577 1580 1581 1582 1582 1584 1586 1586 1589 1591 1590 1589 1591 1593 1593 1593 1593 1592 1592 1592 1592 1592 1592 1593 1592 1592 1592 1590 1590 1589 1588 1587 1586 1585 1583 1582 1580 1579
1567 1570 1573 1574 1575 1577 1579 1581 1582 1582 1582 1584 1586 1588 1589 1588 1588 1588 1589 1590 1590 1591 1590 1590 1589 1589 1588 1587 1587 1587 1586 1585 1585 1584 1583 1582 1581 1580 1579 1578 1576 1575 1573
1571 1572 1574 1575 1576 1578 1580 1581 1581 1582 1582 1584 1586 1587 1586 1587 1586 1585 1586 1587 1587 1587 1587 1588 1588 1586 1586 1584 1583 1582 1581 1581 1580 1579 1578 1577 1576 1575 1573 1571 1569 1568 1567
1571 1572 1575 1576 1576 1577 1577 1580 1582 1582 1583 1583 1584 1585 1585 1585 1585 1584 1584 1584 1585 1586 1583 1584 1584 1584 1582 1581 1579 1578 1577 1576 1575 1574 1573 1571 1570 1569 1566 1565 1563 1561 1559
1571 1572 1573 1574 1575 1576 1577 1578 1579 1580 1580 1581 1582 1582 1583 1582 1581 1582 1582 1582 1583 1582 1581 1581 1581 1580 1577 1577 1575 1574 1573 1573 1572 1569 1567 1566 1564 1563 1562 1560 1558 1555 1552
1570 1571 1573 1573 1574 1574 1575 1576 1576 1576 1577 1577 1579 1579 1579 1580 1579 1578 1577 1578 1577 1576 1576 1576 1576 1574 1570 1571 1572 1571 1570 1569 1567 1565 1563 1561 1560 1558 1556 1554 1552 1549 1548
1569 1571 1571 1571 1573 1573 1573 1573 1574 1575 1575 1576 1577 1577 1576 1576 1576 1576 1575 1574 1572 1572 1571 1571 1571 1570 1569 1568 1566 1567 1568 1564 1561 1560 1558 1557 1554 1553 1551 1549 1548 1545 1542
1569 1570 1571 1573 1574 1573 1573 1573 1574 1574 1575 1575 1575 1576 1575 1575 1573 1572 1571 1570 1569 1570 1568 1568 1567 1565 1564 1563 1562 1561 1559 1557 1555 1555 1553 1551 1548 1547 1545 1543 1541 1539 1537
1568 1569 1570 1571 1572 1573 1574 1574 1575 1575 1576 1575 1574 1574 1572 1571 1570 1569 1567 1566 1566 1565 1564 1563 1562 1562 1559 1557 1555 1554 1552 1551 1550 1548 1547 1546 1543 1540 1539 1537 1536 1534 1531
1566 1567 1568 1569 1570 1572 1573 1573 1574 1574 1574 1574 1573 1572 1571 1569 1567 1566 1564 1563 1562 1562 1561 1559 1558 1556 1554 1552 1550 1547 1546 1545 1543 1543 1542 1539 1536 1534 1532 1530 1528 1526 1523
1565 1567 1567 1569 1570 1571 1571 1572 1571 1571 1571 1571 1570 1569 1567 1566 1564 1562 1562 1560 1559 1556 1555 1551 1549 1548 1546 1545 1544 1542 1540 1538 1537 1535 1533 1531 1529 1527 1524 1522 1520 1518 1515
1563 1565 1566 1567 1568 1569 1570 1570 1569 1569 1568 1567 1567 1565 1563 1562 1560 1558 1557 1555 1552 1550 1548 1545 1543 1540 1538 1536 1535 1533 1532 1530 1529 1527 1524 1522 1520 1518 1516 1514 1512 1510 1507
1561 1563 1564 1565 1566 1567 1568 1568 1568 1568 1567 1566 1564 1562 1559 1557 1556 1553 1551 1548 1545 1542 1539 1537 1534 1533 1530 1528 1526 1524 1522 1519 1517 1516 1515 1513 1511 1508 1505 1502 1500 1498 1496
1559 1560 1560 1561 1563 1564 1564 1565 1565 1564 1562 1561 1561 1559 1556 1554 1551 1548 1545 1542 1538 1535 1531 1527 1524 1522 1521 1519 1516 1515 1513 1511 1508 1505 1502 1499 1497 1495 1494 1491 1488 1486 1483
1555 1557 1557 1558 1559 1559 1560 1560 1560 1559 1558 1557 1556 1555 1552 1549 1546 1543 1539 1535 1531 1527 1524 1521 1518 1515 1511 1509 1507 1506 1504 1502 1499 1497 1494 1489 1486 1483 1480 1478 1476 1474 1472
1550 1553 1555 1554 1555 1555 1556 1557 1556 1555 1554 1553 1552 1549 1546 1542 1540 1537 1533 1530 1526 1522 1518 1515 1511 1507 1505 1503 1500 1497 1494 1491 1488 1486 1483 1479 1476 1474 1472 1469 1467 1464 1461
1545 1548 1550 1551 1551 1551 1551 1552 1551 1551 1550 1549 1547 1544 1542 1540 1537 1535 1532 1528 1523 1518 1514 1510 1506 1502 1498 1495 1491 1488 1484 1482 1478 1476 1473 1469 1466 1464 1462 1459 1457 1454 1452
Wind_Speed
23 19 16 16 12 10 9 11 14 12 11 11 10 10 11 10 10 11 13 13 12 13 13 12 13 12 10 10 11 12 11 11 10 12 16 15 15 14 12 12 14 15 16
20 21 19 17 14 11 11 5 15 12 11 10 11 13 14 14 14 12 11 13 14 13 13 13 13 14 13 13 12 12 10 10 8 11 12 12 12 12 13 13 14 13 14
22 22 20 19 17 14 12 10 9 12 12 10 12 11 12 13 14 13 12 12 12 12 12 12 10 11 11 10 10 9 8 8 9 11 11 13 13 13 14 14 13 11 10
24 26 22 21 19 16 16 15 14 14 13 11 12 11 9 8 9 9 11 11 12 11 10 11 12 11 9 9 9 10 10 10 11 11 11 12 13 14 14 14 14 13 14
25 23 21 17 17 17 16 16 17 16 16 14 15 14 13 12 11 10 11 12 12 12 11 11 10 11 11 12 12 12 12 14 12 12 13 13 13 13 14 17 16 18 18
16 18 16 10 6 9 14 18 16 18 18 16 16 16 16 15 14 15 15 16 16 14 14 13 13 13 14 14 15 15 15 15 15 14 13 14 18 18 17 19 19 17 19
12 17 16 13 8 6 7 13 17 17 17 17 16 17 18 19 19 16 16 17 18 17 16 16 16 13 16 17 17 17 17 17 18 19 22 21 22 22 24 25 22 23 22
7 9 12 16 14 10 7 8 12 12 12 12 13 15 17 18 19 18 16 16 16 17 17 17 17 17 19 18 19 20 20 21 21 22 24 25 25 26 25 24 25 25 26
18 15 12 10 10 9 7 8 9 8 7 6 6 6 6 9 10 10 11 12 15 18 19 20 20 21 23 23 22 23 24 24 23 24 25 25 24 24 23 24 20 19 22
14 14 12 10 6 7 8 7 7 7 7 7 6 6 7 5 3 4 6 7 9 9 11 14 16 19 20 21 22 23 24 23 25 24 25 25 25 25 24 26 26 22 23
11 9 8 9 8 7 7 7 6 6 5 5 6 7 7 7 6 7 4 6 7 8 8 8 8 10 11 13 14 14 16 19 18 20 22 22 22 20 18 19 24 25 23
11 11 9 8 8 8 7 6 6 6 6 7 7 5 4 5 5 4 3 3 4 4 6 10 12 13 12 12 14 15 16 18 21 21 20 17 17 17 16 20 22 23 25
8 8 8 7 7 7 7 7 7 7 7 7 7 6 5 4 4 4 5 6 6 7 8 9 11 13 13 14 14 16 17 18 18 18 16 19 19 17 19 17 18 17 20
6 6 5 5 5 5 5 6 6 6 6 6 6 6 6 7 9 10 11 12 13 14 13 13 14 15 15 16 16 17 18 19 20 19 20 21 21 20 18 18 19 19 18
4 4 4 4 3 3 2 2 2 2 3 4 5 6 7 10 12 14 15 15 16 17 18 19 21 20 19 20 20 20 19 19 19 20 20 20 20 21 20 20 20 21 18
5 5 4 3 2 2 1 0 1 1 1 3 4 6 9 10 11 11 13 16 17 18 18 21 21 20 20 22 22 19 15 19 23 22 22 23 23 23 23 22 22 21 21
6 6 6 5 5 5 4 3 1 1 2 4 5 6 7 10 12 15 15 15 17 18 19 17 18 18 19 19 17 17 17 18 22 22 23 24 24 25 27 27 25 24 23
4 4 4 5 5 5 6 6 6 4 2 2 4 6 8 10 12 13 14 15 16 17 17 20 19 14 16 18 20 21 22 22 22 24 25 25 24 24 23 20 20 20 20
5 5 6 5 5 5 5 4 3 3 3 4 6 8 9 11 13 15 17 17 16 15 14 14 15 15 17 17 19 23 23 24 24 25 22 20 26 27 27 26 25 28 31
7 6 5 5 5 3 2 2 3 4 6 8 10 12 15 17 17 18 19 19 18 18 18 21 22 21 20 20 21 21 21 20 21 21 23 24 26 29 30 31 29 28 31
8 7 7 6 5 3 2 1 3 5 7 9 12 15 19 19 20 21 21 21 20 19 21 21 22 24 25 28 27 29 32 30 29 26 27 27 29 33 35 36 37 37 36
10 9 9 8 7 6 4 2 2 4 7 10 12 16 21 19 20 22 22 23 23 24 22 22 22 21 21 24 29 32 33 34 35 37 39 39 39 41 42 47 47 45 44
12 11 10 9 8 7 6 4 3 4 7 10 11 13 14 16 19 21 24 24 26 27 26 25 26 23 21 23 23 25 33 35 34 37 38 40 42 43 43 45 47 48 47
15 13 12 11 9 8 7 7 6 7 8 8 8 11 14 17 19 23 26 27 28 27 26 27 26 25 25 24 25 26 25 26 27 28 31 36 39 40 40 39 39 39 41
19 16 14 12 11 9 9 9 8 8 10 12 14 17 20 23 26 28 31 33 32 31 30 29 28 26 25 24 24 24 26 27 29 32 34 35 36 36 36 37 38 39 41
22 18 14 13 12 11 11 11 11 10 11 13 15 18 21 24 25 27 29 30 32 31 29 28 27 26 25 24 23 24 25 24 25 26 27 30 31 32 32 34 34 36 37
Wind_Direction
225 227 228 221 227 225 217 232 213 210 207 210 214 220 223 225 226 227 234 236 247 246 247 252 253 258 268 280 287 294 299 303 303 310 321 331 336 339 340 337 335 336 340
223 229 229 223 223 223 227 234 211 217 212 218 228 233 240 241 240 241 239 241 242 245 246 248 253 256 263 271 278 282 286 294 303 313 321 331 341 345 349 348 342 341 347
217 222 227 221 227 225 223 230 205 198 210 229 231 245 241 239 238 239 236 242 242 242 245 237 248 254 259 264 266 270 277 287 305 313 313 325 333 337 338 341 344 342 358
215 216 215 219 223 229 227 226 231 227 226 233 229 231 240 228 228 241 236 241 246 251 249 242 248 248 257 261 259 263 271 280 299 304 305 311 317 325 329 333 335 333 328
194 200 199 203 219 227 227 227 228 232 232 233 234 237 244 243 240 237 238 242 246 249 250 254 256 259 263 266 273 276 276 279 286 294 298 300 307 313 314 321 322 322 324
202 202 191 180 209 218 223 221 221 220 230 232 234 237 241 244 248 247 249 248 252 259 260 260 259 258 259 261 268 275 275 278 280 281 289 294 305 309 310 313 314 314 313
216 212 198 199 284 261 247 216 207 212 221 230 236 240 242 246 248 247 248 251 257 264 265 268 267 271 268 265 268 272 277 276 276 283 289 290 294 302 304 306 307 306 307
209 210 219 219 257 206 194 197 193 188 191 206 223 234 243 242 239 240 241 247 257 261 263 267 270 270 271 273 270 271 273 276 278 279 282 286 290 294 296 299 300 303 304
200 197 186 189 186 175 187 202 200 184 188 198 189 198 220 219 236 246 243 244 250 258 265 268 267 269 273 275 274 274 274 275 276 276 277 282 285 287 289 291 295 296 297
153 156 148 155 162 167 174 170 171 170 186 190 174 173 173 179 175 278 282 268 260 256 265 265 261 263 266 269 270 272 275 276 278 281 284 284 285 286 284 285 288 285 289
145 140 146 146 144 148 148 151 148 156 164 181 184 183 186 207 232 250 269 305 280 286 274 273 278 285 287 290 292 289 283 285 287 288 290 293 293 291 289 286 285 283 282
157 159 166 165 165 165 159 161 152 148 145 151 164 179 194 228 241 263 301 276 271 311 299 295 297 296 301 305 300 295 293 291 292 291 294 297 297 298 295 288 285 284 279
162 170 180 177 174 177 176 184 184 180 182 180 178 182 193 217 244 273 288 310 309 302 308 308 301 300 302 303 303 302 303 301 296 296 293 292 299 301 301 304 294 294 294
159 169 176 178 180 183 186 190 196 196 194 206 220 230 243 251 254 261 270 274 281 290 295 297 296 298 308 307 306 306 306 301 303 299 300 300 301 302 304 305 306 306 306
172 180 184 180 180 185 200 202 215 229 237 243 252 258 263 272 284 285 286 286 289 293 296 298 300 303 302 302 304 304 300 301 303 302 304 303 303 303 306 308 309 308 305
169 176 173 173 181 176 170 168 37 40 329 297 291 297 304 308 308 303 299 302 303 302 302 303 303 304 301 296 295 298 298 299 298 298 297 298 303 306 307 309 312 313 312
157 159 159 159 158 151 144 139 114 34 357 331 322 321 315 309 308 309 310 309 305 303 303 303 303 304 303 304 307 299 296 291 292 289 291 294 297 299 304 306 309 310 309
179 171 165 160 153 147 143 141 138 132 114 8 339 336 334 329 324 320 319 315 311 308 303 299 299 310 307 299 294 291 288 287 288 290 290 290 293 297 301 306 307 307 307
185 174 168 161 149 141 131 117 100 75 43 8 351 341 335 331 329 329 328 328 326 319 311 306 304 302 300 299 301 292 289 289 288 288 291 296 294 291 290 294 297 300 302
191 185 178 170 162 149 133 86 41 19 11 5 357 352 347 345 342 339 335 329 323 316 310 305 300 291 281 283 288 287 291 289 289 288 285 286 288 291 294 295 294 296 298
202 200 198 198 195 197 211 346 4 7 3 359 354 349 345 350 350 344 339 334 327 318 311 305 299 294 285 277 281 281 277 280 282 286 289 289 287 286 287 289 291 293 294
212 212 208 208 213 219 228 259 337 356 1 360 355 348 353 358 350 345 340 334 328 324 318 308 302 298 296 292 275 274 280 281 281 280 281 282 284 285 286 285 285 288 289
223 223 220 220 222 229 238 252 292 332 348 352 353 352 352 350 351 348 342 335 329 327 324 318 314 309 300 294 291 282 277 280 285 287 289 287 285 284 285 286 286 286 285
228 229 230 231 238 245 250 256 278 309 331 336 337 342 346 347 345 346 345 338 333 330 325 321 318 312 307 304 296 289 285 284 284 285 284 286 288 291 294 294 292 290 287
229 230 234 231 240 252 253 261 264 287 314 321 326 336 339 341 341 339 339 341 337 331 327 323 319 314 310 304 301 298 289 283 286 285 285 284 284 284 286 289 292 294 294
226 229 239 236 242 257 265 257 257 276 298 308 314 322 329 330 332 333 333 332 334 331 326 323 321 319 314 310 305 302 300 299 295 291 289 287 288 289 289 289 291 291 292